[[{"header":{"parameterUnit":"m.s-1","parameterCategory":1,"la1":30.2992,"la2":30.254,"lo1":-89.0895,"lo2":-89.0443,"dy":0.0025,"dx":0.0025,"nx":19,"ny":19,"refTime":"2026-05-01T21:00:00:Z","depth":0,"parameterNumber":2,"parameterNumberName":"U-component_of_WINDS"},"data":[0,0,0,-1.3895,-1.3899,-1.4089,-1.409,-1.4363,-1.4366,0,0,0,0,0,0,0,0,0,0,0,-1.3855,-1.3857,-1.3894,-1.39,-1.4089,-1.409,-1.4362,-1.4366,0,0,0,0,0,0,0,0,0,0,0,-1.3854,-1.3856,-1.3859,-1.39,-1.4089,-1.409,-1.4362,-1.4208,0,0,0,0,0,0,0,0,0,0,-1.4019,-1.3997,-1.3856,-1.386,-1.3902,-1.4089,-1.409,-1.42,-1.4218,-1.4289,0,-1.4355,0,-1.4365,-1.4386,-1.4387,0,0,0,-1.3888,-1.3983,-1.4019,-1.386,-1.3903,-1.4089,-1.4,-1.421,-1.423,-1.4312,-1.4359,-1.4368,-1.4369,-1.4387,-1.4389,-1.4835,-1.4838,0,0,-1.3878,-1.3898,-1.4006,-1.4033,-1.4003,-1.3994,-1.4006,-1.4221,-1.4274,-1.4359,-1.4374,-1.4374,-1.4389,-1.4392,-1.4833,-1.4836,0,0,0,-1.3855,-1.3892,-1.3922,-1.4022,-1.4054,-1.4,-1.4014,-1.4264,-1.4272,-1.4377,-1.4377,-1.4391,-1.4395,-1.483,-1.4834,-1.4986,0,0,0,-1.3848,-1.3878,-1.3918,-1.3932,-1.4051,-1.4161,-1.4053,-1.4257,-1.4281,-1.4375,-1.4391,-1.4398,-1.4827,-1.4832,-1.4976,-1.5057,0,0,0,-1.3837,-1.3877,-1.3909,-1.3933,-1.4015,-1.4157,-1.4177,-1.4262,-1.4282,-1.4387,-1.4399,-1.4825,-1.4831,-1.4967,-1.5041,-1.5184,0,0,0,-1.3831,-1.4041,-1.3912,-1.4147,-1.4014,-1.4248,-1.4175,-1.4349,-1.4457,-1.4393,-1.4827,-1.4833,-1.4964,-1.5032,-1.5174,-1.531,-1.5367,0,0,-1.4108,-1.4076,-1.4212,-1.4102,-1.4365,-1.4217,-1.4503,-1.4583,-1.4574,-1.4749,-1.476,-1.4979,-1.504,-1.5181,-1.5674,-1.572,0,0,0,-1.4307,-1.4406,-1.4471,-1.4574,-1.4638,-1.4702,-1.4735,-1.4764,-1.4912,-1.4667,-1.5066,-1.5101,-1.5183,-1.5248,-1.5287,-1.5358,-1.4863,-1.4862,-1.4861,-1.4733,-1.4709,-1.4935,-1.4935,-1.5035,-1.5067,-1.5148,-1.5193,-1.5139,-1.5234,-1.5288,-1.5589,-1.5666,-1.5695,-1.5769,-1.5353,-1.5354,-1.5355,-1.5355,-1.5141,-1.528,-1.5202,-1.5394,-1.5368,-1.553,-1.5568,-1.5525,-1.5674,-1.5546,-1.5618,-1.5486,-1.5746,-1.581,-1.5366,-1.5364,-1.5363,-1.5362,-1.5361,-1.5422,-1.5484,-1.5515,-1.5662,-1.5779,-1.5769,-1.5916,-1.5886,-1.5859,-1.5929,-1.5985,-1.5983,-1.5981,-1.5957,-1.5958,-1.5959,-1.596,-1.596,-1.5961,-1.5703,-1.5732,-1.5859,-1.5945,-1.6008,-1.6087,-1.612,-1.6182,-1.6243,-1.621,-1.621,-1.6151,-1.5773,-1.5682,-1.5977,-1.5975,-1.5972,-1.5971,-1.597,-1.6135,-1.6033,-1.6228,-1.6292,-1.6391,-1.651,-1.6468,-1.6597,-1.6643,-1.6717,-1.6641,-1.6364,-1.633,-1.6299,-1.6224,-1.6642,-1.6642,-1.6642,-1.6642,-1.6377,-1.6354,-1.6549,-1.6652,-1.6749,-1.6731,-1.6957,-1.6984,-1.6997,-1.7025,-1.6959,-1.6854,-1.6823,-1.6808,-1.6765,-1.6695,-1.7224,-1.7224,-1.7225,-1.6643,-1.6629,-1.6827,-1.6836,-1.6911,-1.6977,-1.7189,-1.7313,-1.7305,-1.7248,-1.7048,-1.7023,-1.6854,-1.6799,-1.6743,-1.6678,-1.6549,0,0]},{"header":{"parameterUnit":"m.s-1","parameterCategory":1,"la1":30.2992,"la2":30.254,"lo1":-89.0895,"lo2":-89.0443,"dy":0.0025,"dx":0.0025,"nx":19,"ny":19,"refTime":"2026-05-01T21:00:00:Z","depth":0,"parameterNumber":3,"parameterNumberName":"V-component_of_WINDS"},"data":[0,0,0,-2.9848,-2.9851,-2.9995,-2.9995,-3.0184,-3.0186,0,0,0,0,0,0,0,0,0,0,0,-2.981,-2.9811,-2.9848,-2.9852,-2.9995,-2.9995,-3.0184,-3.0186,0,0,0,0,0,0,0,0,0,0,0,-2.9809,-2.9811,-2.9812,-2.9852,-2.9995,-2.9995,-3.0184,-3.0073,0,0,0,0,0,0,0,0,0,0,-2.9933,-2.9902,-2.981,-2.9813,-2.9853,-2.9994,-2.9995,-3.0068,-3.008,-3.0122,0,-3.016,0,-3.0176,-3.0199,-3.02,0,0,0,-2.9849,-2.9891,-2.9926,-2.9813,-2.9854,-2.9994,-2.9929,-3.0075,-3.0089,-3.0138,-3.0163,-3.017,-3.0179,-3.02,-3.0201,-3.0452,-3.0453,0,0,-2.9841,-2.9838,-2.9917,-2.9936,-2.9914,-2.9925,-2.9934,-3.0083,-3.011,-3.0164,-3.0174,-3.0183,-3.0202,-3.0203,-3.045,-3.0452,0,0,0,-2.982,-2.9832,-2.9863,-2.9928,-2.9953,-2.9929,-2.9939,-3.0103,-3.0114,-3.0176,-3.0185,-3.0203,-3.0205,-3.0449,-3.0451,-3.0513,0,0,0,-2.9815,-2.982,-2.986,-2.986,-2.9951,-3.003,-2.9956,-3.0103,-3.012,-3.0184,-3.0203,-3.0207,-3.0448,-3.045,-3.0508,-3.0543,0,0,0,-2.9799,-2.9818,-2.984,-2.9859,-2.9921,-3.0028,-3.0047,-3.0107,-3.0126,-3.02,-3.0208,-3.0447,-3.045,-3.0504,-3.0536,-3.0608,0,0,0,-2.9781,-2.9894,-2.9841,-2.997,-2.992,-3.0065,-3.0046,-3.0154,-3.0225,-3.0204,-3.0448,-3.0451,-3.0502,-3.0532,-3.0603,-3.0669,-3.0695,0,0,-2.9922,-2.9911,-2.9987,-2.9944,-3.0098,-3.0043,-3.0206,-3.0274,-3.0284,-3.0395,-3.0401,-3.051,-3.0535,-3.0607,-3.0844,-3.0866,0,0,0,-3.003,-3.0085,-3.0126,-3.0193,-3.0247,-3.0297,-3.034,-3.0365,-3.0459,-3.034,-3.0555,-3.057,-3.0612,-3.0644,-3.0662,-3.0698,-3.0465,-3.0465,-3.0464,-3.0226,-3.0231,-3.0357,-3.038,-3.0445,-3.0488,-3.0541,-3.0582,-3.0569,-3.0619,-3.0653,-3.0796,-3.0833,-3.0847,-3.0884,-3.0687,-3.0687,-3.0688,-3.0688,-3.0433,-3.0511,-3.049,-3.0605,-3.0609,-3.0706,-3.075,-3.0738,-3.0828,-3.0772,-3.0809,-3.0749,-3.087,-3.0903,-3.0692,-3.0692,-3.0691,-3.0691,-3.069,-3.0563,-3.0601,-3.0629,-3.0725,-3.0799,-3.0817,-3.0904,-3.0906,-3.0907,-3.0944,-3.098,-3.0979,-3.0978,-3.0961,-3.0961,-3.0962,-3.0962,-3.0963,-3.0963,-3.0687,-3.0716,-3.0789,-3.0855,-3.0897,-3.0953,-3.0995,-3.1037,-3.1084,-3.1078,-3.1078,-3.106,-3.088,-3.0835,-3.0971,-3.0969,-3.0968,-3.0968,-3.0967,-3.0897,-3.0849,-3.0963,-3.1005,-3.1081,-3.1154,-3.1153,-3.1238,-3.1272,-3.1315,-3.1288,-3.1154,-3.1144,-3.1129,-3.1092,-3.1287,-3.1287,-3.1287,-3.1287,-3.1008,-3.1001,-3.1117,-3.1184,-3.125,-3.1261,-3.1388,-3.1421,-3.1448,-3.1469,-3.1441,-3.1391,-3.1377,-3.1375,-3.1355,-3.132,-3.1568,-3.1569,-3.1569,-3.1137,-3.1137,-3.1246,-3.1271,-3.1329,-3.138,-3.1499,-3.1577,-3.1598,-3.158,-3.1486,-3.1474,-3.1394,-3.1368,-3.1351,-3.132,-3.1257,0,0]}]]